Year,Month,Day,Hour,Minute,Value (Times are PST for temperature in C)
2008,11,13,00,00,10.60
2008,11,13,00,01,10.60
2008,11,13,00,02,10.60
2008,11,13,00,03,10.60
2008,11,13,00,04,10.60
2008,11,13,00,05,10.60
2008,11,13,00,06,10.60
2008,11,13,00,07,10.60
2008,11,13,00,08,10.60
2008,11,13,00,09,10.60
2008,11,13,00,10,10.60
2008,11,13,00,11,10.60
2008,11,13,00,12,10.60
2008,11,13,00,13,10.60
2008,11,13,01,02,9.70
2008,11,13,01,03,9.70
2008,11,13,01,04,9.70
2008,11,13,01,05,9.70
2008,11,13,01,06,9.70
2008,11,13,01,07,9.70
2008,11,13,01,08,9.70
2008,11,13,01,09,9.70
2008,11,13,01,10,9.60
2008,11,13,01,11,9.60
2008,11,13,01,12,9.50
2008,11,13,01,13,9.50
2008,11,13,01,14,9.50
2008,11,13,01,15,9.40
2008,11,13,01,16,9.40
2008,11,13,01,17,9.40
2008,11,13,01,18,9.40
2008,11,13,01,19,9.40
2008,11,13,01,20,9.40
2008,11,13,01,21,9.40
2008,11,13,01,22,9.40
2008,11,13,01,23,9.40
2008,11,13,01,24,9.30
2008,11,13,01,25,9.30
2008,11,13,01,26,9.30
2008,11,13,01,27,9.30
2008,11,13,01,28,9.30
2008,11,13,01,29,9.30
2008,11,13,01,30,9.30
2008,11,13,01,31,9.30
2008,11,13,01,32,9.30
2008,11,13,01,33,9.20
2008,11,13,01,34,9.20
2008,11,13,01,35,9.20
2008,11,13,01,36,9.20
2008,11,13,01,37,9.20
2008,11,13,01,38,9.20
2008,11,13,01,39,9.20
2008,11,13,01,40,9.20
2008,11,13,01,41,9.20
2008,11,13,01,42,9.20
2008,11,13,01,43,9.10
2008,11,13,01,44,9.10
2008,11,13,01,45,9.10
2008,11,13,01,46,9.10
2008,11,13,01,47,9.10
2008,11,13,01,48,9.10
2008,11,13,01,49,9.00
2008,11,13,01,50,9.10
2008,11,13,01,51,9.10
2008,11,13,01,52,9.10
2008,11,13,01,53,9.00
2008,11,13,01,54,9.00
2008,11,13,01,55,8.90
2008,11,13,01,56,8.90
2008,11,13,01,57,8.90
2008,11,13,01,58,8.90
2008,11,13,01,59,8.90
2008,11,13,02,00,8.90
2008,11,13,02,01,8.90
2008,11,13,02,02,8.90
2008,11,13,02,03,8.90
2008,11,13,02,04,8.80
2008,11,13,02,05,8.80
2008,11,13,02,06,8.80
2008,11,13,02,07,8.90
2008,11,13,02,08,8.90
2008,11,13,02,09,8.90
2008,11,13,02,10,8.90
2008,11,13,02,11,8.90
2008,11,13,02,12,8.90
2008,11,13,02,13,8.90
2008,11,13,02,14,8.90
2008,11,13,02,15,8.90
2008,11,13,02,16,8.90
2008,11,13,02,17,8.90
2008,11,13,02,18,8.80
2008,11,13,02,19,8.80
2008,11,13,02,20,8.90
2008,11,13,02,21,8.90
2008,11,13,02,22,8.80
2008,11,13,02,23,8.80
2008,11,13,02,24,8.80
2008,11,13,02,25,8.80
2008,11,13,02,26,8.80
2008,11,13,02,27,8.80
2008,11,13,02,28,8.80
2008,11,13,02,29,8.80
2008,11,13,02,30,8.80
2008,11,13,02,31,8.80
2008,11,13,02,32,8.80
2008,11,13,02,33,8.80
2008,11,13,02,34,8.80
2008,11,13,02,35,8.80
2008,11,13,02,36,8.80
2008,11,13,02,37,8.70
2008,11,13,02,38,8.70
2008,11,13,02,39,8.80
2008,11,13,02,40,8.80
2008,11,13,02,41,8.80
2008,11,13,02,42,8.80
2008,11,13,02,43,8.80
2008,11,13,02,44,8.80
2008,11,13,02,45,8.70
2008,11,13,02,46,8.80
2008,11,13,02,47,8.80
2008,11,13,02,48,8.80
2008,11,13,02,49,8.80
2008,11,13,02,50,8.80
2008,11,13,02,51,8.80
2008,11,13,02,52,8.80
2008,11,13,02,53,8.70
2008,11,13,02,54,8.70
2008,11,13,02,55,8.70
2008,11,13,02,56,8.70
2008,11,13,02,57,8.70
2008,11,13,02,58,8.70
2008,11,13,02,59,8.70
2008,11,13,03,00,8.70
2008,11,13,03,01,8.70
2008,11,13,03,02,8.70
2008,11,13,03,03,8.80
2008,11,13,03,04,8.70
2008,11,13,03,05,8.80
2008,11,13,03,06,8.80
2008,11,13,03,07,8.70
2008,11,13,03,08,8.80
2008,11,13,03,09,8.70
2008,11,13,03,10,8.70
2008,11,13,03,11,8.70
2008,11,13,03,12,8.70
2008,11,13,03,13,8.70
2008,11,13,03,14,8.70
2008,11,13,03,15,8.70
2008,11,13,03,16,8.70
2008,11,13,03,17,8.70
2008,11,13,03,18,8.60
2008,11,13,03,19,8.60
2008,11,13,03,20,8.60
2008,11,13,03,21,8.60
2008,11,13,03,22,8.70
2008,11,13,03,23,8.70
2008,11,13,03,24,8.70
2008,11,13,03,25,8.70
2008,11,13,03,26,8.70
2008,11,13,03,27,8.70
2008,11,13,03,28,8.70
2008,11,13,03,29,8.70
2008,11,13,03,30,8.70
2008,11,13,03,31,8.70
2008,11,13,03,32,8.70
2008,11,13,03,33,8.60
2008,11,13,03,34,8.70
2008,11,13,03,35,8.70
2008,11,13,03,36,8.70
2008,11,13,03,37,8.70
2008,11,13,03,38,8.60
2008,11,13,03,39,8.60
2008,11,13,03,40,8.70
2008,11,13,03,41,8.70
2008,11,13,03,42,8.70
2008,11,13,03,43,8.60
2008,11,13,03,44,8.60
2008,11,13,03,45,8.60
2008,11,13,03,46,8.60
2008,11,13,03,47,8.50
2008,11,13,03,48,8.50
2008,11,13,03,49,8.50
2008,11,13,03,50,8.50
2008,11,13,03,51,8.50
2008,11,13,03,52,8.50
2008,11,13,03,53,8.40
2008,11,13,03,54,8.40
2008,11,13,03,55,8.50
2008,11,13,03,56,8.50
2008,11,13,03,57,8.60
2008,11,13,03,58,8.60
2008,11,13,03,59,8.60
2008,11,13,04,00,8.60
2008,11,13,04,01,8.60
2008,11,13,04,02,8.50
2008,11,13,04,03,8.50
2008,11,13,04,04,8.40
2008,11,13,04,05,8.40
2008,11,13,04,06,8.40
2008,11,13,04,07,8.40
2008,11,13,04,08,8.30
2008,11,13,04,09,8.30
2008,11,13,04,10,8.30
2008,11,13,04,11,8.30
2008,11,13,04,12,8.30
2008,11,13,04,13,8.20
2008,11,13,04,14,8.20
2008,11,13,04,15,8.20
2008,11,13,04,16,8.20
2008,11,13,04,17,8.20
2008,11,13,04,18,8.20
2008,11,13,04,19,8.20
2008,11,13,04,20,8.20
2008,11,13,04,21,8.20
2008,11,13,04,22,8.20
2008,11,13,04,23,8.10
2008,11,13,04,24,8.20
2008,11,13,04,25,8.20
2008,11,13,04,26,8.20
2008,11,13,04,27,8.20
2008,11,13,04,28,8.20
2008,11,13,04,29,8.10
2008,11,13,04,30,8.10
2008,11,13,04,31,8.10
2008,11,13,04,32,8.10
2008,11,13,04,33,8.10
2008,11,13,04,34,8.10
2008,11,13,04,35,8.10
2008,11,13,04,36,8.10
2008,11,13,04,37,8.20
2008,11,13,04,38,8.20
2008,11,13,04,39,8.10
2008,11,13,04,40,8.10
2008,11,13,04,41,8.20
2008,11,13,04,42,8.20
2008,11,13,04,43,8.10
2008,11,13,04,44,8.10
2008,11,13,04,45,8.10
2008,11,13,04,46,8.10
2008,11,13,04,47,8.10
2008,11,13,04,48,8.10
2008,11,13,04,49,8.10
2008,11,13,04,50,8.10
2008,11,13,04,51,8.10
2008,11,13,04,52,8.10
2008,11,13,04,53,8.10
2008,11,13,04,54,8.10
2008,11,13,04,55,8.10
2008,11,13,04,56,8.10
2008,11,13,04,57,8.10
2008,11,13,04,58,8.00
2008,11,13,04,59,8.00
2008,11,13,05,00,8.00
2008,11,13,05,01,8.00
2008,11,13,05,02,8.00
2008,11,13,05,03,7.90
2008,11,13,05,04,7.90
2008,11,13,05,05,7.90
2008,11,13,05,06,7.90
2008,11,13,05,07,7.90
2008,11,13,05,08,7.90
2008,11,13,05,09,7.90
2008,11,13,05,10,7.90
2008,11,13,05,11,7.90
2008,11,13,05,12,7.90
2008,11,13,05,13,7.90
2008,11,13,05,14,7.90
2008,11,13,05,15,7.90
2008,11,13,05,16,8.00
2008,11,13,05,17,8.00
2008,11,13,05,18,8.00
2008,11,13,05,19,8.00
2008,11,13,05,20,7.90
2008,11,13,05,21,7.90
2008,11,13,05,22,7.90
2008,11,13,05,23,7.80
2008,11,13,05,24,7.80
2008,11,13,05,25,7.90
2008,11,13,05,26,7.90
2008,11,13,05,27,7.90
2008,11,13,05,28,7.90
2008,11,13,05,29,7.90
2008,11,13,05,30,7.90
2008,11,13,05,31,7.90
2008,11,13,05,32,7.90
2008,11,13,05,33,7.90
2008,11,13,05,34,7.90
2008,11,13,05,35,7.80
2008,11,13,05,36,7.80
2008,11,13,05,37,7.80
2008,11,13,05,38,7.70
2008,11,13,05,39,7.70
2008,11,13,05,40,7.70
2008,11,13,05,41,7.70
2008,11,13,05,42,7.70
2008,11,13,05,43,7.70
2008,11,13,05,44,7.70
2008,11,13,05,45,7.70
2008,11,13,05,46,7.70
2008,11,13,05,47,7.70
2008,11,13,05,48,7.70
2008,11,13,05,49,7.70
2008,11,13,05,50,7.70
2008,11,13,05,51,7.70
2008,11,13,05,52,7.60
2008,11,13,05,53,7.60
2008,11,13,05,54,7.60
2008,11,13,05,55,7.60
2008,11,13,05,56,7.60
2008,11,13,05,57,7.60
2008,11,13,05,58,7.60
2008,11,13,05,59,7.60
2008,11,13,06,00,7.60
2008,11,13,06,01,7.60
2008,11,13,06,02,7.60
2008,11,13,06,03,7.60
2008,11,13,06,04,7.60
2008,11,13,06,05,7.60
2008,11,13,06,06,7.60
2008,11,13,06,07,7.60
2008,11,13,06,08,7.60
2008,11,13,06,09,7.60
2008,11,13,06,10,7.50
2008,11,13,06,11,7.50
2008,11,13,06,12,7.40
2008,11,13,06,13,7.40
2008,11,13,06,14,7.40
2008,11,13,06,15,7.40
2008,11,13,06,16,7.50
2008,11,13,06,17,7.50
2008,11,13,06,18,7.50
2008,11,13,06,19,7.50
2008,11,13,06,20,7.50
2008,11,13,06,21,7.50
2008,11,13,06,22,7.50
2008,11,13,06,23,7.50
2008,11,13,06,24,7.50
2008,11,13,06,25,7.50
2008,11,13,06,26,7.50
2008,11,13,06,27,7.50
2008,11,13,06,28,7.50
2008,11,13,06,29,7.50
2008,11,13,06,30,7.50
2008,11,13,06,31,7.60
2008,11,13,06,32,7.60
2008,11,13,06,33,7.60
2008,11,13,06,34,7.60
2008,11,13,06,35,7.60
2008,11,13,06,36,7.60
2008,11,13,06,37,7.60
2008,11,13,06,38,7.60
2008,11,13,06,39,7.60
2008,11,13,06,40,7.60
2008,11,13,06,41,7.60
2008,11,13,06,42,7.60
2008,11,13,06,43,7.60
2008,11,13,06,44,7.60
2008,11,13,06,45,7.60
2008,11,13,06,46,7.60
2008,11,13,06,47,7.60
2008,11,13,06,48,7.50
2008,11,13,06,49,7.50
2008,11,13,06,50,7.50
2008,11,13,06,51,7.50
2008,11,13,06,52,7.50
2008,11,13,06,53,7.50
2008,11,13,06,54,7.50
2008,11,13,06,55,7.50
2008,11,13,06,56,7.50
2008,11,13,06,57,7.50
2008,11,13,06,58,7.40
2008,11,13,06,59,7.40
2008,11,13,07,00,7.40
2008,11,13,07,01,7.40
2008,11,13,07,02,7.50
2008,11,13,07,03,7.50
2008,11,13,07,04,7.40
2008,11,13,07,05,7.40
2008,11,13,07,06,7.40
2008,11,13,07,07,7.40
2008,11,13,07,08,7.40
2008,11,13,07,09,7.40
2008,11,13,07,10,7.50
2008,11,13,07,11,7.50
2008,11,13,07,12,7.50
2008,11,13,07,13,7.50
2008,11,13,07,14,7.50
2008,11,13,07,15,7.50
2008,11,13,07,16,7.50
2008,11,13,07,17,7.40
2008,11,13,07,18,7.40
2008,11,13,07,19,7.40
2008,11,13,07,20,7.40
2008,11,13,07,21,7.40
2008,11,13,07,22,7.30
2008,11,13,07,23,7.30
2008,11,13,07,24,7.20
2008,11,13,07,25,7.20
2008,11,13,07,26,7.20
2008,11,13,07,27,7.20
2008,11,13,07,28,7.20
2008,11,13,07,29,7.20
2008,11,13,07,30,7.20
2008,11,13,07,31,7.20
2008,11,13,07,32,7.20
2008,11,13,07,33,7.20
2008,11,13,07,34,7.20
2008,11,13,07,35,7.20
2008,11,13,07,36,7.20
2008,11,13,07,37,7.20
2008,11,13,07,38,7.20
2008,11,13,07,39,7.20
2008,11,13,07,40,7.20
2008,11,13,07,41,7.20
2008,11,13,07,42,7.20
2008,11,13,07,43,7.10
2008,11,13,07,44,7.10
2008,11,13,07,45,7.00
2008,11,13,07,46,7.00
2008,11,13,07,47,6.90
2008,11,13,07,48,6.90
2008,11,13,07,49,6.90
2008,11,13,07,50,6.90
2008,11,13,07,51,6.90
2008,11,13,07,52,6.90
2008,11,13,07,53,6.90
2008,11,13,07,54,6.90
2008,11,13,07,55,6.90
2008,11,13,07,56,6.90
2008,11,13,07,57,6.90
2008,11,13,07,58,6.90
2008,11,13,07,59,7.00
2008,11,13,08,00,7.00
2008,11,13,08,01,7.00
2008,11,13,08,02,7.00
2008,11,13,08,03,7.00
2008,11,13,08,04,7.00
2008,11,13,08,05,7.00
2008,11,13,08,06,7.00
2008,11,13,08,07,6.90
2008,11,13,08,08,6.90
2008,11,13,08,09,6.90
2008,11,13,08,10,6.90
2008,11,13,08,11,6.90
2008,11,13,08,12,6.90
2008,11,13,08,13,7.00
2008,11,13,08,14,7.00
2008,11,13,08,15,7.00
2008,11,13,08,16,7.00
2008,11,13,08,17,7.00
2008,11,13,08,18,7.00
2008,11,13,08,19,7.00
2008,11,13,08,20,7.00
2008,11,13,08,21,7.00
2008,11,13,08,22,7.00
2008,11,13,08,23,7.10
2008,11,13,08,24,7.10
2008,11,13,08,25,7.10
2008,11,13,08,26,7.10
2008,11,13,08,27,7.10
2008,11,13,08,28,7.10
2008,11,13,08,29,7.20
2008,11,13,08,30,7.20
2008,11,13,08,31,7.20
2008,11,13,08,32,7.20
2008,11,13,08,33,7.20
2008,11,13,08,34,7.20
2008,11,13,08,35,7.20
2008,11,13,08,36,7.20
2008,11,13,08,37,7.20
2008,11,13,08,38,7.20
2008,11,13,08,39,7.20
2008,11,13,08,40,7.20
2008,11,13,08,41,7.20
2008,11,13,08,42,7.20
2008,11,13,08,43,7.20
2008,11,13,08,44,7.20
2008,11,13,08,45,7.20
2008,11,13,08,46,7.20
2008,11,13,08,47,7.20
2008,11,13,08,48,7.30
2008,11,13,08,49,7.30
2008,11,13,08,50,7.30
2008,11,13,08,51,7.30
2008,11,13,08,52,7.30
2008,11,13,08,53,7.30
2008,11,13,08,54,7.30
2008,11,13,08,55,7.30
2008,11,13,08,56,7.40
2008,11,13,08,57,7.40
2008,11,13,08,58,7.40
2008,11,13,08,59,7.40
2008,11,13,09,00,7.40
2008,11,13,09,01,7.40
2008,11,13,09,02,7.40
2008,11,13,09,03,7.50
2008,11,13,09,04,7.50
2008,11,13,09,05,7.50
2008,11,13,09,06,7.60
2008,11,13,09,07,7.50
2008,11,13,09,08,7.60
2008,11,13,09,09,7.60
2008,11,13,09,10,7.60
2008,11,13,09,11,7.60
2008,11,13,09,12,7.60
2008,11,13,09,13,7.70
2008,11,13,09,14,7.70
2008,11,13,09,15,7.70
2008,11,13,09,16,7.70
2008,11,13,09,17,7.70
2008,11,13,09,18,7.70
2008,11,13,09,19,7.70
2008,11,13,09,20,7.80
2008,11,13,09,21,7.70
2008,11,13,09,22,7.70
2008,11,13,09,23,7.70
2008,11,13,09,24,7.70
2008,11,13,09,25,7.70
2008,11,13,09,26,7.70
2008,11,13,09,27,7.70
2008,11,13,09,28,7.70
2008,11,13,09,29,7.70
2008,11,13,09,30,7.80
2008,11,13,09,31,7.80
2008,11,13,09,32,7.80
2008,11,13,09,33,7.90
2008,11,13,09,34,7.90
2008,11,13,09,35,7.90
2008,11,13,09,36,8.00
2008,11,13,09,37,8.00
2008,11,13,09,38,8.00
2008,11,13,09,39,8.10
2008,11,13,09,40,8.10
2008,11,13,09,41,8.10
2008,11,13,09,42,8.20
2008,11,13,09,43,8.20
2008,11,13,09,44,8.20
2008,11,13,09,45,8.20
2008,11,13,09,46,8.20
2008,11,13,09,47,8.20
2008,11,13,09,48,8.20
2008,11,13,09,49,8.20
2008,11,13,09,50,8.20
2008,11,13,09,51,8.20
2008,11,13,09,52,8.20
2008,11,13,09,53,8.20
2008,11,13,09,54,8.30
2008,11,13,09,55,8.30
2008,11,13,09,56,8.30
2008,11,13,09,57,8.40
2008,11,13,09,58,8.40
2008,11,13,09,59,8.40
2008,11,13,10,00,8.40
2008,11,13,10,01,8.40
2008,11,13,10,02,8.40
2008,11,13,10,03,8.40
2008,11,13,10,04,8.40
2008,11,13,10,05,8.50
2008,11,13,10,06,8.50
2008,11,13,10,07,8.50
2008,11,13,10,08,8.60
2008,11,13,10,09,8.60
2008,11,13,10,10,8.60
2008,11,13,10,11,8.60
2008,11,13,10,12,8.60
2008,11,13,10,13,8.60
2008,11,13,10,14,8.60
2008,11,13,10,15,8.60
2008,11,13,10,16,8.70
2008,11,13,10,17,8.70
2008,11,13,10,18,8.70
2008,11,13,10,19,8.70
2008,11,13,10,20,8.70
2008,11,13,10,21,8.70
2008,11,13,10,22,8.70
2008,11,13,10,23,8.80
2008,11,13,10,24,8.80
2008,11,13,10,25,8.80
2008,11,13,10,26,8.90
2008,11,13,10,27,8.90
2008,11,13,10,28,8.90
2008,11,13,10,29,8.90
2008,11,13,10,30,9.00
2008,11,13,10,31,9.00
2008,11,13,10,32,9.00
2008,11,13,10,33,9.00
2008,11,13,10,34,9.00
2008,11,13,10,35,9.00
2008,11,13,10,36,9.00
2008,11,13,10,37,9.10
2008,11,13,10,38,9.10
2008,11,13,10,39,9.10
2008,11,13,10,40,9.10
2008,11,13,10,41,9.10
2008,11,13,10,42,9.10
2008,11,13,10,43,9.10
2008,11,13,10,44,9.10
2008,11,13,10,45,9.10
2008,11,13,10,46,9.10
2008,11,13,10,47,9.10
2008,11,13,10,48,9.10
2008,11,13,10,49,9.10
2008,11,13,10,50,9.20
2008,11,13,10,51,9.20
2008,11,13,10,52,9.20
2008,11,13,10,53,9.20
2008,11,13,10,54,9.20
2008,11,13,10,55,9.20
2008,11,13,10,56,9.20
2008,11,13,10,57,9.20
2008,11,13,10,58,9.30
2008,11,13,10,59,9.30
2008,11,13,11,00,9.20
2008,11,13,11,01,9.20
2008,11,13,11,02,9.30
2008,11,13,11,03,9.30
2008,11,13,11,04,9.40
2008,11,13,11,05,9.40
2008,11,13,11,06,9.40
2008,11,13,11,07,9.30
2008,11,13,11,08,9.30
2008,11,13,11,09,9.30
2008,11,13,11,10,9.40
2008,11,13,11,11,9.40
2008,11,13,11,12,9.50
2008,11,13,11,13,9.60
2008,11,13,11,14,9.50
2008,11,13,11,15,9.50
2008,11,13,11,16,9.40
2008,11,13,11,17,9.40
2008,11,13,11,18,9.40
2008,11,13,11,19,9.40
2008,11,13,11,20,9.40
2008,11,13,11,21,9.50
2008,11,13,11,22,9.60
2008,11,13,11,23,9.60
2008,11,13,11,24,9.60
2008,11,13,11,25,9.60
2008,11,13,11,26,9.60
2008,11,13,11,27,9.50
2008,11,13,11,28,9.50
2008,11,13,11,29,9.50
2008,11,13,11,30,9.40
2008,11,13,11,31,9.40
2008,11,13,11,32,9.30
2008,11,13,11,33,9.40
2008,11,13,11,34,9.50
2008,11,13,11,35,9.60
2008,11,13,11,36,9.60
2008,11,13,11,37,9.60
2008,11,13,11,38,9.60
2008,11,13,11,39,9.50
2008,11,13,11,40,9.50
2008,11,13,11,41,9.40
2008,11,13,11,42,9.40
2008,11,13,11,43,9.40
2008,11,13,11,44,9.40
2008,11,13,11,45,9.40
2008,11,13,11,46,9.40
2008,11,13,11,47,9.50
2008,11,13,11,48,9.50
2008,11,13,11,49,9.50
2008,11,13,11,50,9.50
2008,11,13,11,51,9.50
2008,11,13,11,52,9.50
2008,11,13,11,53,9.50
2008,11,13,11,54,9.40
2008,11,13,11,55,9.40
2008,11,13,11,56,9.40
2008,11,13,11,57,9.40
2008,11,13,11,58,9.40
2008,11,13,11,59,9.40
2008,11,13,12,00,9.40
2008,11,13,12,01,9.50
2008,11,13,12,02,9.60
2008,11,13,12,03,9.60
2008,11,13,12,04,9.60
2008,11,13,12,05,9.60
2008,11,13,12,06,9.60
2008,11,13,12,07,9.60
2008,11,13,12,08,9.60
2008,11,13,12,09,9.60
2008,11,13,12,10,9.60
2008,11,13,12,11,9.60
2008,11,13,12,12,9.60
2008,11,13,12,13,9.60
2008,11,13,12,14,9.60
2008,11,13,12,15,9.60
2008,11,13,12,16,9.60
2008,11,13,12,17,9.60
2008,11,13,12,18,9.70
2008,11,13,12,19,9.70
2008,11,13,12,20,9.70
2008,11,13,12,21,9.70
2008,11,13,12,22,9.70
2008,11,13,12,23,9.70
2008,11,13,12,24,9.70
2008,11,13,12,25,9.70
2008,11,13,12,26,9.70
2008,11,13,12,27,9.70
2008,11,13,12,28,9.70
2008,11,13,12,29,9.70
2008,11,13,12,30,9.70
2008,11,13,12,31,9.80
2008,11,13,12,32,9.80
2008,11,13,12,33,9.90
2008,11,13,12,34,9.90
2008,11,13,12,35,10.00
2008,11,13,12,36,10.00
2008,11,13,12,37,10.00
2008,11,13,12,38,10.00
2008,11,13,12,39,10.00
2008,11,13,12,40,9.90
2008,11,13,12,41,9.90
2008,11,13,12,42,9.80
2008,11,13,12,43,9.80
2008,11,13,12,44,9.80
2008,11,13,12,45,9.80
2008,11,13,12,46,9.80
2008,11,13,12,47,9.80
2008,11,13,12,48,9.80
2008,11,13,12,49,9.80
2008,11,13,12,50,9.80
2008,11,13,12,51,9.80
2008,11,13,12,52,9.90
2008,11,13,12,53,9.90
2008,11,13,12,54,9.90
2008,11,13,12,55,9.90
2008,11,13,12,56,9.80
2008,11,13,12,57,9.80
2008,11,13,12,58,9.80
2008,11,13,12,59,9.80
2008,11,13,13,00,9.80
2008,11,13,13,01,9.80
2008,11,13,13,02,9.90
2008,11,13,13,03,9.90
2008,11,13,13,04,9.90
2008,11,13,13,05,9.90
2008,11,13,13,06,9.90
2008,11,13,13,07,10.00
2008,11,13,13,08,10.00
2008,11,13,13,09,10.10
2008,11,13,13,10,10.10
2008,11,13,13,11,10.10
2008,11,13,13,12,10.20
2008,11,13,13,13,10.10
2008,11,13,13,14,10.10
2008,11,13,13,15,10.10
2008,11,13,13,16,10.10
2008,11,13,13,17,10.10
2008,11,13,13,18,10.10
2008,11,13,13,19,10.20
2008,11,13,13,20,10.30
2008,11,13,13,21,10.20
2008,11,13,13,22,10.20
2008,11,13,13,23,10.10
2008,11,13,13,24,10.10
2008,11,13,13,25,10.10
2008,11,13,13,26,10.00
2008,11,13,13,27,10.00
2008,11,13,13,28,10.00
2008,11,13,13,29,10.00
2008,11,13,13,30,10.10
2008,11,13,13,31,10.10
2008,11,13,13,32,10.10
2008,11,13,13,33,10.10
2008,11,13,13,34,10.20
2008,11,13,13,35,10.20
2008,11,13,13,36,10.20
2008,11,13,13,37,10.20
2008,11,13,13,38,10.10
2008,11,13,13,39,10.20
2008,11,13,13,40,10.20
2008,11,13,13,41,10.20
2008,11,13,13,42,10.20
2008,11,13,13,43,10.20
2008,11,13,13,44,10.30
2008,11,13,13,45,10.30
2008,11,13,13,46,10.30
2008,11,13,13,47,10.30
2008,11,13,13,48,10.30
2008,11,13,13,49,10.20
2008,11,13,13,50,10.20
2008,11,13,13,51,10.10
2008,11,13,13,52,10.00
2008,11,13,13,53,9.90
2008,11,13,13,54,9.90
2008,11,13,13,55,10.00
2008,11,13,13,56,10.00
2008,11,13,13,57,9.90
2008,11,13,13,58,9.90
2008,11,13,13,59,9.90
2008,11,13,14,00,9.90
2008,11,13,14,01,9.90
2008,11,13,14,02,9.90
2008,11,13,14,03,10.00
2008,11,13,14,04,10.00
2008,11,13,14,05,10.10
2008,11,13,14,06,10.10
2008,11,13,14,07,10.00
2008,11,13,14,08,10.00
2008,11,13,14,09,10.00
2008,11,13,14,10,10.00
2008,11,13,14,11,10.10
2008,11,13,14,12,10.10
2008,11,13,14,13,10.10
2008,11,13,14,14,10.10
2008,11,13,14,15,10.10
2008,11,13,14,16,10.20
2008,11,13,14,17,10.20
2008,11,13,14,18,10.20
2008,11,13,14,19,10.20
2008,11,13,14,20,10.20
2008,11,13,14,21,10.20
2008,11,13,14,22,10.20
2008,11,13,14,23,10.20
2008,11,13,14,24,10.20
2008,11,13,14,25,10.20
2008,11,13,14,26,10.30
2008,11,13,14,27,10.30
2008,11,13,14,28,10.40
2008,11,13,14,29,10.40
2008,11,13,14,30,10.40
2008,11,13,14,31,10.40
2008,11,13,14,32,10.30
2008,11,13,14,33,10.30
2008,11,13,14,34,10.30
2008,11,13,14,35,10.30
2008,11,13,14,36,10.30
2008,11,13,14,37,10.30
2008,11,13,14,38,10.30
2008,11,13,14,39,10.40
2008,11,13,14,40,10.40
2008,11,13,14,41,10.40
2008,11,13,14,42,10.30
2008,11,13,14,43,10.30
2008,11,13,14,44,10.30
2008,11,13,14,45,10.30
2008,11,13,14,46,10.30
2008,11,13,14,47,10.30
2008,11,13,14,48,10.30
2008,11,13,14,49,10.30
2008,11,13,14,50,10.30
2008,11,13,14,51,10.30
2008,11,13,14,52,10.30
2008,11,13,14,53,10.30
2008,11,13,14,54,10.20
2008,11,13,14,55,10.20
2008,11,13,14,56,10.10
2008,11,13,14,57,10.10
2008,11,13,14,58,10.10
2008,11,13,14,59,10.10
2008,11,13,15,00,10.10
2008,11,13,15,01,10.10
2008,11,13,15,02,10.10
2008,11,13,15,03,10.10
2008,11,13,15,04,10.20
2008,11,13,15,05,10.20
2008,11,13,15,06,10.20
2008,11,13,15,07,10.20
2008,11,13,15,08,10.20
2008,11,13,15,09,10.20
2008,11,13,15,10,10.20
2008,11,13,15,11,10.20
2008,11,13,15,12,10.10
2008,11,13,15,13,10.10
2008,11,13,15,14,10.00
2008,11,13,15,15,10.00
2008,11,13,15,16,10.00
2008,11,13,15,17,10.00
2008,11,13,15,18,9.90
2008,11,13,15,19,9.90
2008,11,13,15,20,9.90
2008,11,13,15,21,9.90
2008,11,13,15,22,9.90
2008,11,13,15,23,9.90
2008,11,13,15,24,9.90
2008,11,13,15,25,9.90
2008,11,13,15,26,9.90
2008,11,13,15,27,9.90
2008,11,13,15,28,9.90
2008,11,13,15,29,9.90
2008,11,13,15,30,9.80
2008,11,13,15,31,9.80
2008,11,13,15,32,9.90
2008,11,13,15,33,9.80
2008,11,13,15,34,9.80
2008,11,13,15,35,9.80
2008,11,13,15,36,9.80
2008,11,13,15,37,9.80
2008,11,13,15,38,9.80
2008,11,13,15,39,9.80
2008,11,13,15,40,9.80
2008,11,13,15,41,9.90
2008,11,13,15,42,9.90
2008,11,13,15,43,9.80
2008,11,13,15,44,9.70
2008,11,13,15,45,9.70
2008,11,13,15,46,9.70
2008,11,13,15,47,9.70
2008,11,13,15,48,9.70
2008,11,13,15,49,9.70
2008,11,13,15,50,9.70
2008,11,13,15,51,9.60
2008,11,13,15,52,9.60
2008,11,13,15,53,9.50
2008,11,13,15,54,9.50
2008,11,13,15,55,9.50
2008,11,13,15,56,9.50
2008,11,13,15,57,9.40
2008,11,13,15,58,9.40
2008,11,13,15,59,9.30
2008,11,13,16,00,9.30
2008,11,13,16,01,9.30
2008,11,13,16,02,9.30
2008,11,13,16,03,9.20
2008,11,13,16,04,9.10
2008,11,13,16,05,9.00
2008,11,13,16,06,8.90
2008,11,13,16,07,8.80
2008,11,13,16,08,8.60
2008,11,13,16,09,8.50
2008,11,13,16,10,8.30
2008,11,13,16,11,8.20
2008,11,13,16,12,8.10
2008,11,13,16,13,8.00
2008,11,13,16,14,7.90
2008,11,13,16,15,7.80
2008,11,13,16,16,7.70
2008,11,13,16,17,7.70
2008,11,13,16,18,7.60
2008,11,13,16,19,7.50
2008,11,13,16,20,7.40
2008,11,13,16,21,7.40
2008,11,13,16,22,7.30
2008,11,13,16,23,7.30
2008,11,13,16,24,7.30
2008,11,13,16,25,7.20
2008,11,13,16,26,7.20
2008,11,13,16,27,7.10
2008,11,13,16,28,7.00
2008,11,13,16,29,7.00
2008,11,13,16,30,6.90
2008,11,13,16,31,6.90
2008,11,13,16,32,6.90
2008,11,13,16,33,6.80
2008,11,13,16,34,6.80
2008,11,13,16,35,6.80
2008,11,13,16,36,6.70
2008,11,13,16,37,6.70
2008,11,13,16,38,6.70
2008,11,13,16,39,6.60
2008,11,13,16,40,6.60
2008,11,13,16,41,6.60
2008,11,13,16,42,6.50
2008,11,13,16,43,6.50
2008,11,13,16,44,6.40
2008,11,13,16,45,6.40
2008,11,13,16,46,6.40
2008,11,13,16,47,6.30
2008,11,13,16,48,6.30
2008,11,13,16,49,6.30
2008,11,13,16,50,6.30
2008,11,13,16,51,6.20
2008,11,13,16,52,6.20
2008,11,13,16,53,6.20
2008,11,13,16,54,6.20
2008,11,13,16,55,6.10
2008,11,13,16,56,6.10
2008,11,13,16,57,6.00
2008,11,13,16,58,6.00
2008,11,13,16,59,6.00
2008,11,13,17,00,5.90
2008,11,13,17,01,5.90
2008,11,13,17,02,5.90
2008,11,13,17,03,5.80
2008,11,13,17,04,5.80
2008,11,13,17,05,5.80
2008,11,13,17,06,5.80
2008,11,13,17,07,5.70
2008,11,13,17,08,5.70
2008,11,13,17,09,5.70
2008,11,13,17,10,5.60
2008,11,13,17,11,5.60
2008,11,13,17,12,5.60
2008,11,13,17,13,5.50
2008,11,13,17,14,5.50
2008,11,13,17,15,5.40
2008,11,13,17,16,5.40
2008,11,13,17,17,5.40
2008,11,13,17,18,5.30
2008,11,13,17,19,5.30
2008,11,13,17,20,5.30
2008,11,13,17,21,5.30
2008,11,13,17,22,5.20
2008,11,13,17,23,5.20
2008,11,13,17,24,5.20
2008,11,13,17,25,5.20
2008,11,13,17,26,5.10
2008,11,13,17,27,5.10
2008,11,13,17,28,5.10
2008,11,13,17,29,5.10
2008,11,13,17,30,5.10
2008,11,13,17,31,5.10
2008,11,13,17,32,5.00
2008,11,13,17,33,5.00
2008,11,13,17,34,5.00
2008,11,13,17,35,4.90
2008,11,13,17,36,4.90
2008,11,13,17,37,4.90
2008,11,13,17,38,4.90
2008,11,13,17,39,4.80
2008,11,13,17,40,4.80
2008,11,13,17,41,4.80
2008,11,13,17,42,4.80
2008,11,13,17,43,4.70
2008,11,13,17,44,4.70
2008,11,13,17,45,4.70
2008,11,13,17,46,4.70
2008,11,13,17,47,4.70
2008,11,13,17,48,4.60
2008,11,13,17,49,4.60
2008,11,13,17,50,4.60
2008,11,13,17,51,4.50
2008,11,13,17,52,4.50
2008,11,13,17,53,4.50
2008,11,13,17,54,4.50
2008,11,13,17,55,4.40
2008,11,13,17,56,4.40
2008,11,13,17,57,4.40
2008,11,13,17,58,4.40
2008,11,13,17,59,4.30
2008,11,13,18,00,4.30
2008,11,13,18,01,4.30
2008,11,13,18,02,4.30
2008,11,13,18,03,4.30
2008,11,13,18,04,4.30
2008,11,13,18,05,4.20
2008,11,13,18,06,4.20
2008,11,13,18,07,4.20
2008,11,13,18,08,4.20
2008,11,13,18,09,4.20
2008,11,13,18,10,4.20
2008,11,13,18,11,4.20
2008,11,13,18,12,4.20
2008,11,13,18,13,4.10
2008,11,13,18,14,4.10
2008,11,13,18,15,4.10
2008,11,13,18,16,4.10
2008,11,13,18,17,4.10
2008,11,13,18,18,4.00
2008,11,13,18,19,4.00
2008,11,13,18,20,4.00
2008,11,13,18,21,4.00
2008,11,13,18,22,3.90
2008,11,13,18,23,3.90
2008,11,13,18,24,3.90
2008,11,13,18,25,3.90
2008,11,13,18,26,3.90
2008,11,13,18,27,3.90
2008,11,13,18,28,3.90
2008,11,13,18,29,3.90
2008,11,13,18,30,3.80
2008,11,13,18,31,3.80
2008,11,13,18,32,3.80
2008,11,13,18,33,3.80
2008,11,13,18,34,3.80
2008,11,13,18,35,3.80
2008,11,13,18,36,3.70
2008,11,13,18,37,3.70
2008,11,13,18,38,3.70
2008,11,13,18,39,3.70
2008,11,13,18,40,3.70
2008,11,13,18,41,3.70
2008,11,13,18,42,3.70
2008,11,13,18,43,3.60
2008,11,13,18,44,3.60
2008,11,13,18,45,3.60
2008,11,13,18,46,3.60
2008,11,13,18,47,3.60
2008,11,13,18,48,3.60